KE0YTD Weather Reports


Display with metric or nautical units.
time (UTC)temp
F
wind
direction
speed
MPH
gust
MPH
rain 1hr
in
rain 24hr
in
rain mn
in
humidity
%
barometer
mb
20260505070105 44 93 1.0 2.0 0.00 0.16 0.00 91 1011.9
20260505064550 44 90 2.0 3.0 0.00 0.16 0.00 90 1012.2
20260505063041 44 86 4.0 6.0 0.01 0.16 0.00 91 1012.1
20260505061548 45 72 2.0 3.0 0.02 0.16 0.00 93 1012.1
20260505060049 45 82 2.0 4.0 0.03 0.16 0.00 94 1012.2
20260505054554 45 11 1.0 2.0 0.10 0.16 0.16 94 1012.3
20260505053056 45 219 1.0 2.0 0.10 0.15 0.15 93 1012.4
20260505051550 45 213 2.0 4.0 0.10 0.14 0.14 93 1012.7
20260505041546 47 244 6.0 11.0 0.04 0.04 0.04 85 1012.5
20260505040053 50 261 6.0 10.0 0.00 0.00 0.00 70 1012.3
20260505034546 50 249 3.0 4.0 0.00 0.00 0.00 67 1011.8
20260505033048 50 308 2.0 4.0 0.00 0.00 0.00 67 1011.6
20260505031546 50 315 1.0 2.0 0.00 0.00 0.00 66 1011.5
20260505030100 50 327 1.0 2.0 0.00 0.00 0.00 65 1011.2
20260505024551 50 315 2.0 3.0 0.00 0.00 0.00 63 1011.1
20260505023057 51 0 0.0 3.0 0.00 0.00 0.00 62 1011.1
20260505021547 50 311 1.0 3.0 0.00 0.00 0.00 62 1010.8
20260505020047 50 313 3.0 6.0 0.00 0.00 0.00 63 1011.0
20260505014546 51 5 9.0 14.0 0.00 0.00 0.00 64 1010.6
20260505013043 53 348 4.0 11.0 0.00 0.00 0.00 57 1010.7
20260505011554 55 261 8.0 12.0 0.00 0.00 0.00 50 1010.7
20260505010058 56 315 3.0 11.0 0.00 0.00 0.00 48 1010.2
20260505004549 56 317 4.0 12.0 0.00 0.00 0.00 46 1010.1
20260505003050 57 265 6.0 14.0 0.00 0.00 0.00 43 1010.1
20260505001550 59 334 8.0 14.0 0.00 0.00 0.00 40 1009.7
20260505000100 59 293 9.0 16.0 0.00 0.00 0.00 38 1009.6
20260504234550 60 329 5.0 16.0 0.00 0.00 0.00 36 1009.4
20260504233053 60 320 8.0 13.0 0.00 0.00 0.00 36 1009.4
20260504231544 60 329 10.0 18.0 0.00 0.00 0.00 36 1009.2
20260504230052 61 330 13.0 21.0 0.00 0.00 0.00 36 1008.9
20260504224552 61 322 15.0 21.0 0.00 0.00 0.00 35 1008.9
20260504223047 62 336 11.0 18.0 0.00 0.00 0.00 33 1008.6
20260504221554 64 304 8.0 17.0 0.00 0.00 0.00 30 1008.3
20260504220110 65 311 7.0 12.0 0.00 0.00 0.00 26 1008.1
20260504214554 67 258 5.0 13.0 0.00 0.00 0.00 25 1008.1
20260504213059 66 311 6.0 14.0 0.00 0.00 0.00 25 1008.3
20260504211556 68 275 4.0 14.0 0.00 0.00 0.00 25 1008.3
20260504210045 68 240 11.0 17.0 0.00 0.00 0.00 25 1008.5
20260504204552 68 248 8.0 13.0 0.00 0.00 0.00 24 1008.7
20260504203053 67 302 6.0 14.0 0.00 0.00 0.00 23 1008.9
20260504201553 68 317 5.0 31.0 0.00 0.00 0.00 23 1008.9
20260504200050 68 61 2.0 8.0 0.00 0.00 0.00 25 1009.0
20260504194547 65 228 2.0 16.0 0.00 0.00 0.00 27 1009.2
20260504193043 64 248 6.0 20.0 0.00 0.00 0.00 25 1009.8
20260504191556 64 240 10.0 24.0 0.00 0.00 0.00 25 1009.3
20260504190057 65 248 8.0 15.0 0.00 0.00 0.00 23 1008.9
20260504184559 66 290 6.0 11.0 0.00 0.00 0.00 24 1009.0
20260504183050 67 313 4.0 9.0 0.00 0.00 0.00 24 1008.9
20260504181550 67 269 5.0 10.0 0.00 0.00 0.00 23 1009.1
20260504180052 67 216 3.0 15.0 0.00 0.00 0.00 23 1009.2
20260504174547 67 296 7.0 13.0 0.00 0.00 0.00 22 1009.5
20260504173047 67 234 6.0 13.0 0.00 0.00 0.00 24 1009.9
20260504171544 67 238 10.0 16.0 0.00 0.00 0.00 26 1010.1
20260504081603 51 194 3.0 7.0 0.00 0.00 0.00 43 1011.5